INTELSAT 33E DEB, 64406

Orbit data source: Space-Track

INTELSAT 33E DEB, 64406 is space debris in GEO originally from a launch on Wed, 24 Aug 2016 UTC launched from the French Guiana (FRGUI). Debris objects in space refer to the collection of defunct objects orbiting the Earth. Examples of debris include non-operational satellites, rocket bodies, and fragments generated from explosions, collisions, or faulty payload assembly.

Loading next visibility...
Identifier
64406, 2016-053AL
Orbit
GEO
Last TLE update
2 days ago
Origin
Flag of UnknownINTELU (Unknown / ITSO)
Manufacturer
Boeing/ES
Mission
Spacecraft
Bus & Motor
Unknown
Mass
Unknown
Launch date (UTC)
2016-08-24 (9 years ago)
Launch vehicle
Unknown
Launch site
French Guiana (FRGUI)
Object type
Payload
Rocket body
Debris
Shape & HBR
Unknown
Radar Cross Section
RCS unknown

Expand to show TLE details & history

TLE from 2 days ago
0 INTELSAT 33E DEB
1 64406U 16053AL  25180.57626425  .00000022  00000-0  00000-0 0  9992
2 64406   0.6121  54.9486 0138477  56.9467 249.5732  0.98886016  2353
Epoch: 2025-06-29T13:49Z
TLE epoch observation values (Epoch: 2025-06-29T13:49:49.231Z)
Latitude
-0.50989°
Longitude
-125.35192°
Altitude
36,391.62 km
Speed
3.045 km/s
True Right ascension
00h 00m 00s
True Declination
0° 30' 34"
Sunlit
Object was in daylight at epoch
Visualization orbit readout
Latitude
-0.58316°
Longitude
175.82823°
Altitude
36,762.443 km
Speed
3.019 km/s
Apparent Right ascension
19h 51m 02s
Apparent Declination
-6° 36' 49"
Sunlit
Object is in daylight
Visualization observer readout
Local Sidereal Time
21:57:46
Azimuth
219.597° SW
Elevation
35.06°
Doppler factor
1
Orbital elements
Apogee altitude
36,770.009 km
Perigee altitude
35,591.326 km
Semi-major axis
42,558.804 km
Eccentricity
0.01385
Inclination
0.6121°
RAAN
54.9486°
Arg. of periapsis
56.9467°
True anomaly
Unknown
Mean anomaly
249.5732°
Eccentric anomaly
Unknown
Mean motion
0.24721 °/min
Orbital period
1,456.28 mins
BSTAR
0
Loading historical data...
64406 neighbors
Loading maneuver chart data...
Loading SW <> Apogee altitude chart data...
Loading historical data...
Loading historical data...
Loading historical data...
Loading historical data...
Loading historical data...
Loading historical data...
Loading historical data...

INTELSAT 33E DEB Visibility forecast

Observer location: undefined°, undefined°

Span
Click to sort rows by Start time (UTC) header in descending order
Start Az.
Max El. time (UTC)
Max El. Az.
Max El.
End time (UTC)
End Az.
1440 mins2025-07-01 10:19:21.173Z219.585° SW2025-07-02 01:24:21.173Z222.217° SW29.909°2025-07-02 10:19:21.173Z225.113° WSW
|